+ View the NASA Portal
+ Center for Near-Earth Object Studies
JPL Small-Body Database Browser
Search:
[
help
]
14758 (6519 P-L)
Classification:
Main-belt Asteroid
SPK-ID:
2014758
[
Ephemeris
|
Orbit Diagram
|
Orbital Elements
|
Mission Design
|
Physical Parameters
|
Discovery Circumstances
|
Close-Approach Data
]
[ show orbit diagram ]
Orbital Elements at Epoch 2459200.5 (2020-Dec-17.0) TDB
Reference:
JPL 34
(heliocentric ecliptic J2000)
Element
Value
Uncertainty (1-sigma)
Units
e
.185667183791347
2.8727e-08
a
3.036933757101527
1.248e-08
au
q
2.473074819059612
8.8448e-08
au
i
3.420482616937909
4.4702e-06
deg
node
29.20572704347091
5.7037e-05
deg
peri
93.39196594620866
5.8587e-05
deg
M
29.98855377323117
1.2123e-05
deg
t
p
2459039.470877396030
(2020-Jul-08.97087740)
6.4942e-05
TDB
period
1933.087022995277
5.29
1.1915e-05
3.262e-08
d
yr
n
.1862306226867053
1.1479e-09
deg/d
Q
3.600792695143442
1.4797e-08
au
Orbit Determination Parameters
# obs. used (total)
2010
data-arc span
22087 days (60.47 yr)
first obs. used
1960-09-24
last obs. used
2021-03-15
planetary ephem.
DE441
SB-pert. ephem.
SB441-N16
condition code
0
norm. resid. RMS
.48212
source
ORB
producer
Otto Matic
solution date
2021-Apr-13 00:38:39
Additional Information
Earth MOID
= 1.49163 au
Jupiter MOID
= 1.49154 au
T_jup
= 3.212
[ show covariance matrix ]
[
Ephemeris
|
Orbit Diagram
|
Orbital Elements
|
Mission Design
|
Physical Parameters
|
Discovery Circumstances
|
Close-Approach Data
]
Physical Parameter Table
Parameter
Symbol
Value
Units
Sigma
Reference
Notes
absolute magnitude
H
13.35
n/a
E2020-QM5
diameter
diameter
11.481
km
0.045
urn:nasa:pds:neowise_diameters_albedos::2.0[mainbelt] (http://adsabs.harvard.edu/abs/2011ApJ...741...68M)
geometric albedo
albedo
0.060
0.005
urn:nasa:pds:neowise_diameters_albedos::2.0[mainbelt] (http://adsabs.harvard.edu/abs/2011ApJ...741...68M)
14758 (6519 P-L)
Discovered 1960-Sep-24 by van Houten, C. J., van Houten-Groeneveld, I., Gehrels, T. at Palomar
Reference:
20000418/Numbers.arc
Last Updated:
2004-04-19
[ show close-approach data ]
Alternate Designations
6519 P-L
= 1973 DQ
[
Ephemeris
|
Orbit Diagram
|
Orbital Elements
|
Mission Design
|
Physical Parameters
|
Discovery Circumstances
|
Close-Approach Data
]
2021-Apr-19 13:35 UT
(server date/time)
Site Manager:
Ryan S. Park
Webmaster
:
Alan B. Chamberlin